Probability
20 19 19 19 19 17 16 16 17 19 20 19 15 12 12 14 16 16 12 10 11 12 14 15 15 17 18 16 12 10 10 9 7 3 4 8 9 6 3 2 1 2 2
21 21 21 21 20 20 19 19 20 21 22 20 16 13 12 14 16 17 14 12 11 13 15 16 16 17 18 17 15 14 14 13 9 5 5 9 11 9 7 4 2 2 2
21 22 23 23 22 21 20 20 21 22 21 20 17 14 13 14 16 17 17 16 14 13 16 18 18 17 17 17 17 16 16 15 12 8 8 11 12 11 10 7 5 4 4
20 21 22 21 20 18 18 18 20 20 19 18 16 15 14 14 15 16 18 18 16 16 17 19 19 17 16 16 16 16 16 14 12 10 10 10 11 11 11 9 7 7 7
18 19 19 18 17 15 14 16 18 19 18 17 16 16 15 14 13 15 16 18 18 18 18 19 18 16 14 12 11 13 15 14 12 10 9 9 10 11 12 10 8 8 9
16 17 16 16 15 13 13 16 19 19 19 18 18 17 16 15 13 11 13 16 19 20 20 18 15 13 11 9 7 7 9 11 11 10 9 9 10 11 12 11 9 9 9
16 16 15 15 14 12 12 14 17 18 19 19 18 16 15 15 12 10 10 15 20 21 20 17 13 11 10 10 9 7 7 7 8 10 11 11 12 13 14 14 13 12 12
15 15 14 13 12 11 10 11 13 15 16 17 17 15 13 13 11 8 8 12 18 20 18 16 13 11 10 11 11 11 12 11 8 8 11 12 12 14 16 16 16 15 14
13 14 14 13 13 12 11 11 12 13 14 15 14 12 12 11 9 6 6 10 15 16 16 15 12 10 9 9 11 13 15 15 11 8 9 9 9 10 12 15 16 15 13
12 14 15 15 15 15 14 13 13 13 13 14 12 11 11 10 7 3 3 8 12 13 14 14 10 8 6 6 9 12 14 16 15 13 10 9 9 9 10 13 16 15 13
16 18 19 19 19 19 17 15 13 13 13 13 13 12 12 9 5 2 2 4 7 9 11 11 8 6 4 3 6 9 11 13 15 16 15 14 14 13 13 14 15 16 15
22 23 23 22 22 21 19 15 13 13 13 14 15 14 11 7 4 1 0 1 2 5 6 7 5 3 1 1 2 5 6 8 10 13 15 16 16 15 15 16 16 16 17
25 25 25 25 24 23 21 16 13 13 14 15 16 14 10 6 4 2 1 0 0 1 3 3 2 1 0 0 1 2 3 5 8 10 12 14 14 14 14 15 16 17 17
24 24 25 25 25 26 23 17 14 14 16 16 15 12 8 5 3 2 1 1 0 0 1 1 0 0 0 1 1 1 2 5 7 10 12 12 12 12 12 14 16 17 16
23 23 24 24 26 26 23 18 15 14 15 14 12 8 6 4 2 1 1 1 1 0 0 0 0 0 1 2 2 2 2 3 5 9 12 11 9 10 11 12 15 16 16
22 23 24 24 24 23 20 17 13 11 8 7 5 4 3 1 1 0 0 0 0 0 0 0 0 0 1 2 2 2 3 3 5 8 10 9 8 8 9 11 13 14 14
21 23 24 23 22 20 18 16 13 9 6 3 1 1 1 0 0 0 0 0 0 0 0 0 0 0 1 2 2 3 4 5 6 7 8 7 7 7 8 9 10 11 12
22 22 22 21 19 18 17 16 14 12 9 5 2 0 0 0 0 0 0 0 0 0 0 0 0 0 0 1 2 3 5 7 7 7 7 7 7 7 6 6 7 8 8
21 20 19 18 17 16 15 14 13 12 11 8 5 2 0 0 0 0 0 0 0 0 0 0 0 0 0 0 1 3 5 8 8 7 6 7 8 7 4 4 5 5 5
18 16 16 15 14 12 11 11 11 11 10 8 6 3 1 0 0 0 0 0 0 0 0 0 1 1 1 0 0 2 4 6 7 6 5 6 7 6 5 4 4 4 4
14 12 12 12 11 10 9 9 8 8 8 6 5 2 0 0 0 0 0 0 0 0 0 0 1 1 1 0 1 2 2 3 3 3 3 5 6 6 6 5 4 3 3
10 9 9 9 9 9 8 7 7 7 6 5 4 2 0 0 0 0 0 0 0 0 1 1 1 0 0 1 1 2 2 1 1 1 2 4 6 6 6 6 4 3 3
7 7 7 7 7 7 7 6 6 5 5 5 4 3 1 1 1 1 0 0 0 1 2 2 1 0 0 1 2 2 2 1 0 0 1 3 6 6 6 6 5 4 4
7 7 6 7 7 7 6 6 5 4 4 5 5 3 2 1 1 1 1 0 0 1 2 2 1 0 0 1 1 1 1 0 0 0 1 3 6 6 6 6 6 6 6
7 6 6 7 7 6 5 5 3 3 3 3 3 3 2 1 0 0 0 0 0 0 1 1 0 0 0 0 0 0 0 0 0 0 1 3 5 6 6 6 6 6 6
5 5 5 6 6 5 4 2 1 1 1 1 1 1 1 1 0 0 0 0 0 0 0 0 0 0 0 0 0 0 0 0 0 0 1 3 5 5 6 6 6 6 6
Wind_Speed
6 5 5 5 5 4 4 3 3 3 2 3 3 3 3 3 3 3 3 3 4 4 4 4 4 4 3 3 3 4 3 3 4 3 2 1 2 3 2 2 3 3 3
5 5 5 5 5 5 5 4 4 4 3 3 3 3 4 3 3 3 4 3 4 4 5 4 5 4 4 4 3 4 3 3 4 4 3 2 3 3 3 3 3 3 3
5 5 5 5 5 5 4 4 4 4 4 4 4 4 4 4 3 4 4 4 5 5 4 5 5 4 4 4 4 4 4 4 4 4 4 2 2 3 3 4 4 3 4
5 5 5 5 4 4 4 4 4 4 5 5 4 4 4 4 4 4 4 4 5 4 4 5 5 5 5 5 5 5 5 4 4 5 4 3 3 3 4 4 3 3 4
5 5 4 4 4 4 4 4 4 4 5 4 4 5 5 4 4 3 5 5 5 5 4 5 5 4 4 4 5 5 5 5 5 5 5 4 4 4 4 4 4 3 4
5 4 4 4 4 4 4 3 3 3 3 4 5 5 5 4 0 2 5 5 5 5 5 5 5 5 5 7 7 7 7 7 7 6 5 5 5 5 4 4 4 4 4
4 4 4 4 4 4 4 3 4 4 4 4 5 5 5 4 3 4 5 6 6 5 5 5 5 3 4 5 6 8 9 9 8 8 7 6 5 5 4 5 4 5 4
5 5 4 4 4 4 4 4 4 4 4 4 4 5 6 5 4 5 6 7 6 6 6 6 6 5 4 4 6 6 8 8 9 8 7 7 6 5 5 6 6 5 5
5 5 5 5 5 5 5 4 4 4 4 4 4 5 6 5 4 5 6 6 6 7 6 6 6 6 3 4 6 7 6 6 6 7 6 6 4 4 4 4 5 5 5
5 5 5 5 5 5 5 4 4 4 5 5 4 4 5 5 4 5 6 5 5 5 5 5 5 5 3 4 6 6 6 6 5 5 6 7 7 7 8 7 6 6 5
5 5 5 6 6 6 5 4 5 5 5 4 4 4 4 4 4 5 6 5 5 6 5 4 3 3 5 6 7 6 6 6 6 6 6 6 6 6 7 7 6 6 6
5 5 6 6 6 5 5 5 5 5 5 5 4 4 3 4 3 3 5 7 7 6 5 4 3 3 5 7 6 5 6 6 5 5 5 5 5 5 5 6 6 5 4
6 6 6 6 6 5 6 6 6 6 5 4 4 4 3 2 2 5 6 7 7 6 4 4 3 4 5 5 6 7 6 5 5 5 5 5 4 4 4 4 5 5 5
6 6 6 6 6 5 5 5 5 5 4 4 4 4 3 3 2 1 2 3 5 5 4 3 5 7 6 4 4 5 5 4 4 4 4 4 3 4 5 4 4 4 4
6 6 6 6 5 5 5 4 5 4 3 4 4 4 4 4 1 2 3 4 4 3 3 4 3 3 3 3 3 3 3 4 4 4 4 4 4 4 4 3 3 3 4
6 6 5 5 4 4 4 4 2 3 3 3 4 5 4 3 2 3 4 4 4 5 5 4 3 3 3 3 3 3 4 4 4 4 4 4 4 3 3 3 3 3 4
6 5 4 4 4 5 5 4 4 3 5 6 6 6 6 4 4 4 5 4 5 6 6 4 4 3 4 4 4 4 3 3 3 4 4 3 3 3 3 3 3 3 3
6 5 5 4 4 4 4 4 4 4 4 4 6 8 8 7 7 6 5 4 4 5 5 4 4 4 4 4 4 3 3 3 3 4 4 4 3 4 4 4 3 4 4
6 4 4 4 4 3 4 4 4 4 4 4 3 4 7 7 7 6 6 5 4 4 4 4 4 4 4 4 3 3 3 3 3 3 3 4 4 4 4 4 3 4 5
4 3 3 4 3 3 3 3 3 3 4 4 3 3 3 3 3 4 4 4 4 4 4 4 4 4 4 4 4 4 4 4 4 4 3 3 3 3 4 4 4 4 4
4 4 5 5 3 3 3 3 3 3 3 3 2 1 2 4 4 3 3 4 4 3 3 3 3 4 4 4 4 5 5 4 4 4 3 3 3 3 3 3 4 4 4
3 3 3 3 3 3 3 3 3 3 4 3 2 3 4 4 3 2 2 3 3 3 3 3 3 3 3 4 4 5 5 5 4 4 4 4 4 4 4 4 4 4 4
3 3 3 3 3 3 4 3 3 3 3 3 2 2 3 3 2 2 2 2 2 3 2 3 3 3 3 4 4 4 5 4 4 4 4 4 4 4 4 5 6 6 5
3 3 3 3 3 3 3 3 3 3 3 3 3 3 2 2 3 2 2 2 2 2 2 3 3 3 4 4 3 3 3 3 4 4 5 5 5 5 5 5 5 6 6
2 3 3 3 3 3 2 3 3 3 3 3 3 3 3 3 3 2 2 2 2 2 2 2 2 2 3 5 4 3 1 2 3 4 5 5 6 5 5 6 5 5 5
3 3 3 2 3 3 2 2 3 3 3 2 2 2 2 2 2 2 2 2 2 2 2 2 2 2 3 3 3 2 1 1 3 4 6 5 6 5 5 5 6 6 6
Wind_Direction
196 197 203 204 207 213 221 229 235 240 237 240 243 243 241 242 248 252 265 256 249 246 243 233 237 250 251 246 242 246 244 246 251 262 250 188 201 242 216 233 228 227 190
194 196 202 208 214 216 216 221 225 228 230 225 232 236 241 241 245 250 257 257 256 250 245 241 237 229 231 245 244 243 241 239 241 246 247 214 207 217 222 244 246 242 244
187 197 201 209 215 221 224 225 228 230 233 234 233 235 242 246 246 249 250 253 254 255 254 246 239 234 233 236 240 242 238 228 227 232 237 226 224 219 228 235 239 247 256
193 196 199 213 218 222 224 226 230 233 234 234 236 239 241 247 248 251 252 255 260 262 262 258 246 233 230 233 237 239 240 237 230 232 233 224 223 218 229 240 237 227 249
193 199 201 209 215 220 223 227 229 235 238 234 239 242 247 247 251 266 266 257 262 266 264 258 249 239 246 243 250 245 237 235 231 231 230 227 224 222 227 236 246 245 235
196 202 196 202 208 216 220 223 225 229 236 230 234 243 250 256 217 262 271 268 267 266 264 259 249 229 228 230 241 250 255 245 242 241 239 235 231 233 230 240 245 247 249
199 201 199 203 210 217 218 213 217 221 228 227 233 241 249 249 223 235 249 262 259 261 260 259 262 250 236 246 234 232 241 245 247 247 249 251 243 239 236 239 243 259 268
202 203 206 208 209 213 216 216 219 221 230 234 240 245 250 241 214 229 241 250 255 257 256 255 259 263 262 260 258 248 239 230 228 232 243 248 250 249 235 236 242 244 247
212 213 212 212 215 214 216 219 224 232 240 243 241 246 253 247 217 226 239 253 250 254 255 253 253 256 257 260 257 257 253 242 225 221 234 247 260 247 248 247 240 243 247
221 222 219 215 219 221 221 224 226 230 238 246 241 245 252 259 229 224 234 250 254 257 252 246 240 245 246 244 252 251 250 249 241 220 216 224 228 221 214 227 239 241 248
227 225 223 219 221 221 220 224 228 231 233 241 249 251 246 248 231 216 227 252 258 260 260 261 251 198 225 241 251 250 251 258 247 236 229 225 220 217 213 213 226 236 246
234 228 225 224 227 214 213 222 227 230 229 227 232 243 241 230 231 216 217 239 264 267 271 271 264 216 237 242 242 244 249 248 242 237 235 231 226 220 214 212 214 231 248
234 230 226 226 229 222 219 221 224 223 232 233 235 242 244 250 213 191 209 226 239 254 273 291 280 252 251 235 227 229 232 234 235 233 234 235 232 225 214 205 206 215 233
233 229 223 223 222 219 224 224 230 233 232 236 242 250 252 248 257 261 256 240 227 239 259 251 232 236 245 253 228 215 223 231 238 239 241 240 231 219 214 207 207 208 220
236 230 228 225 221 218 225 236 239 242 255 251 251 253 257 264 305 344 284 279 288 297 287 264 252 236 233 228 225 222 225 218 222 234 239 236 228 222 222 211 208 213 223
236 231 228 224 217 221 219 223 219 233 215 232 249 259 262 260 255 270 273 275 279 269 259 250 252 256 256 252 243 230 223 224 228 233 236 232 225 221 224 219 216 222 227
244 240 235 226 221 225 226 228 224 209 205 219 226 229 236 235 232 243 252 257 254 240 241 249 250 253 253 250 248 241 233 226 237 236 233 230 224 218 223 227 225 228 232
242 231 231 227 228 227 230 235 236 239 230 220 212 212 212 211 219 231 235 240 239 225 241 246 244 245 249 253 254 250 241 231 229 234 234 234 228 221 222 226 226 229 234
238 233 230 234 233 234 239 238 238 237 240 237 229 196 197 205 210 217 218 244 256 255 253 249 244 243 246 248 252 252 246 240 238 237 234 240 237 230 229 229 228 225 239
235 234 237 241 236 231 232 238 239 242 241 231 227 228 202 212 226 213 216 241 252 254 255 254 248 244 245 245 244 244 238 233 232 233 231 236 242 238 233 236 241 240 240
231 210 209 226 229 231 231 235 239 240 244 238 228 206 239 248 244 240 234 237 242 247 252 256 252 244 241 241 244 241 238 235 234 237 237 239 244 244 243 238 240 247 253
231 224 221 218 212 218 228 225 227 230 229 236 231 182 193 238 247 245 247 248 243 242 248 255 260 257 254 249 244 243 240 237 239 239 237 241 244 244 244 239 237 239 242
235 229 226 225 220 205 221 228 226 226 227 227 229 226 217 236 242 248 250 254 254 253 248 245 254 256 254 254 250 247 250 249 248 246 246 249 249 248 244 240 238 240 240
231 236 239 232 227 225 221 225 226 222 224 222 225 229 232 235 242 241 247 253 256 257 253 249 248 251 257 261 260 260 266 279 270 251 250 255 254 250 247 246 246 243 243
230 233 242 241 238 233 226 225 228 227 233 238 237 238 236 233 234 237 234 236 248 253 260 264 262 259 260 265 272 282 328 322 288 281 256 254 254 255 251 249 249 248 243
240 240 241 245 247 246 241 242 243 237 235 239 242 243 245 245 239 238 235 235 249 250 262 271 287 294 288 273 282 303 290 245 256 268 262 251 251 251 252 249 248 248 244